SIA22 WSSS-KEWR

Flight info

Callsign SIA22
Flight time N/A
Altitude 32000
Route TOMAN5B TOMAN L625 AKMON/K0956F320 L625 ANOKI/N0513F320 L625 ABVAR/N0500F350 L625 MEVIN B462 KAZIK Y59 AZAMA Y57 POROT/N0487F370 Y57 PUTER A590 POOFF/N0484F390 A590 HAMND DCT TED J511 GKN J124 ORT DCT 63N140W 63N130W/N0488F410 62N120W 59N110W 5530N10000W DCT MISAX DCT SSM DCT BUF DCT HNK FLOSI4
Aircraft A359/H-SDE2E3GHIJ3J4J5LM1ORWXY/LB1D1

Departure

Time 2026-05-05 19:41
Airport Singapore Changi Airport (WSSS)

Arrival

Time N/A
Airport Newark Liberty International Airport (KEWR)
Time Latitude Longitude Altitude Speed Heading
2026-05-05 18:52 1.36235 103.98807 37 ft 0 kts 113°
2026-05-05 19:27 1.36240 103.98795 35 ft 4 kts 113°
2026-05-05 19:27 1.36251 103.98770 34 ft 4 kts 113°
2026-05-05 19:28 1.36261 103.98747 34 ft 2 kts 113°
2026-05-05 19:28 1.36267 103.98725 33 ft 4 kts 70°
2026-05-05 19:28 1.36251 103.98708 33 ft 4 kts 23°
2026-05-05 19:28 1.36233 103.98700 33 ft 1 kts 22°
2026-05-05 19:29 1.36230 103.98699 34 ft 0 kts 22°
2026-05-05 19:32 1.36233 103.98701 33 ft 2 kts 23°
2026-05-05 19:32 1.36278 103.98721 35 ft 11 kts 24°
2026-05-05 19:33 1.36377 103.98762 36 ft 19 kts 22°
2026-05-05 19:33 1.36494 103.98810 36 ft 11 kts 21°
2026-05-05 19:33 1.36567 103.98811 36 ft 11 kts 353°
2026-05-05 19:33 1.36631 103.98803 36 ft 8 kts 353°
2026-05-05 19:34 1.36681 103.98797 36 ft 6 kts 353°
2026-05-05 19:34 1.36718 103.98804 36 ft 5 kts 22°
2026-05-05 19:34 1.36740 103.98815 36 ft 1 kts 25°
2026-05-05 19:35 1.36743 103.98816 36 ft 0 kts 25°
2026-05-05 19:35 1.36755 103.98822 36 ft 5 kts 24°
2026-05-05 19:35 1.36798 103.98846 36 ft 7 kts 47°
2026-05-05 19:35 1.36793 103.98910 36 ft 12 kts 112°
2026-05-05 19:36 1.36751 103.99005 36 ft 17 kts 113°
2026-05-05 19:36 1.36705 103.99112 36 ft 17 kts 113°
2026-05-05 19:36 1.36660 103.99216 36 ft 16 kts 113°
2026-05-05 19:36 1.36619 103.99313 36 ft 15 kts 113°
2026-05-05 19:37 1.36579 103.99408 36 ft 14 kts 113°
2026-05-05 19:37 1.36541 103.99496 36 ft 13 kts 113°
2026-05-05 19:37 1.36508 103.99572 36 ft 11 kts 113°
2026-05-05 19:37 1.36482 103.99633 36 ft 8 kts 113°
2026-05-05 19:38 1.36454 103.99697 36 ft 13 kts 113°
2026-05-05 19:38 1.36419 103.99776 36 ft 12 kts 113°
2026-05-05 19:38 1.36385 103.99852 36 ft 10 kts 122°
2026-05-05 19:38 1.36325 103.99876 36 ft 9 kts 173°
2026-05-05 19:39 1.36259 103.99884 36 ft 11 kts 173°
2026-05-05 19:39 1.36182 103.99891 36 ft 11 kts 185°
2026-05-05 19:39 1.36144 103.99877 36 ft 0 kts 206°
2026-05-05 19:40 1.36009 103.99817 36 ft 47 kts 202°
2026-05-05 19:40 1.35521 103.99613 36 ft 104 kts 202°
2026-05-05 19:40 1.34691 103.99261 37 ft 154 kts 203°
2026-05-05 19:40 1.33573 103.98788 168 ft 183 kts 202°
2026-05-05 19:41 1.32461 103.98332 879 ft 176 kts 202°
2026-05-05 19:41 1.31293 103.97838 1226 ft 190 kts 202°
2026-05-05 19:41 1.30038 103.97303 1385 ft 202 kts 202°
2026-05-05 19:41 1.28699 103.96733 1523 ft 215 kts 202°
2026-05-05 19:42 1.27273 103.96128 1664 ft 230 kts 202°
2026-05-05 19:42 1.25745 103.95492 1794 ft 246 kts 202°
2026-05-05 19:42 1.24074 103.94982 2034 ft 256 kts 186°
2026-05-05 19:42 1.22892 103.95041 2263 ft 259 kts 165°
2026-05-05 19:43 1.21302 103.95863 2665 ft 260 kts 141°
2026-05-05 19:43 1.19919 103.97045 3085 ft 263 kts 139°
2026-05-05 19:43 1.18547 103.98269 3495 ft 266 kts 139°
2026-05-05 19:43 1.17157 103.99501 3936 ft 268 kts 139°
2026-05-05 19:44 1.15751 104.00739 4378 ft 270 kts 139°
2026-05-05 19:44 1.14497 104.02140 4784 ft 273 kts 121°
2026-05-05 19:44 1.13645 104.03836 5209 ft 274 kts 114°
2026-05-05 19:44 1.12889 104.05589 5645 ft 276 kts 113°
2026-05-05 19:45 1.12127 104.07364 5941 ft 279 kts 113°
2026-05-05 19:45 1.11359 104.09138 5998 ft 279 kts 114°
2026-05-05 19:45 1.10585 104.10916 6001 ft 280 kts 114°
2026-05-05 19:45 1.09805 104.12704 5999 ft 281 kts 114°
2026-05-05 19:46 1.09023 104.14494 6003 ft 281 kts 114°
2026-05-05 19:46 1.08267 104.16297 5995 ft 281 kts 109°
2026-05-05 19:46 1.07951 104.18214 6039 ft 282 kts 90°
2026-05-05 19:46 1.07992 104.20180 6321 ft 284 kts 88°
2026-05-05 19:47 1.08075 104.22152 6754 ft 284 kts 88°
2026-05-05 19:47 1.08154 104.24125 7194 ft 285 kts 88°
2026-05-05 19:47 1.08230 104.26106 7617 ft 286 kts 88°
2026-05-05 19:47 1.08304 104.28095 8031 ft 287 kts 88°
2026-05-05 19:48 1.08376 104.30097 8444 ft 289 kts 88°
2026-05-05 19:48 1.08448 104.32109 8831 ft 291 kts 88°